Wind_Speed
43 42 40 40 41 40 39 39 39 38 37 37 36 37 37 37 38 38 38 38 38 39 40 40 41 41 41 42 42 42 41 41 40 40 41 41 41 40
44 42 41 40 39 39 39 38 37 37 37 36 37 37 36 36 36 37 37 37 38 39 39 40 41 41 42 42 41 41 40 40 40 40 40 40 40 39
44 42 41 40 39 38 37 37 37 36 35 36 37 37 36 35 36 37 37 37 38 38 39 39 40 40 41 40 40 40 39 39 39 39 39 39 38 37
42 40 40 40 39 38 37 37 36 36 37 37 37 37 37 37 36 36 37 38 39 39 39 39 39 39 39 39 39 39 38 37 37 37 38 37 37 36
41 40 39 39 39 38 37 36 35 36 37 36 36 37 38 37 36 37 37 38 38 38 39 39 39 38 38 38 38 37 37 37 37 37 37 36 36 35
40 39 39 38 38 37 35 35 35 36 36 36 36 36 37 38 38 38 38 37 37 38 37 37 37 37 37 36 36 36 36 36 36 36 35 35 35 35
39 39 38 38 38 37 36 35 35 36 36 36 35 35 35 37 37 37 36 36 36 36 36 36 36 36 35 34 35 35 35 35 35 35 35 35 35 35
38 38 39 38 39 39 38 36 36 36 36 37 36 36 35 35 36 36 36 36 35 34 34 33 34 34 34 35 35 35 35 35 35 35 35 35 35 34
37 38 39 38 38 38 38 37 38 37 36 36 36 35 35 35 35 36 35 35 34 33 33 33 34 34 34 34 35 34 34 34 35 35 35 35 34 33
36 38 38 37 36 37 38 37 37 37 37 36 35 36 36 35 34 34 34 34 33 33 32 32 33 33 34 34 33 33 34 33 33 33 33 33 33 31
35 35 36 36 35 37 37 36 36 36 35 34 34 35 35 33 34 34 34 33 32 32 32 32 32 32 32 32 32 33 33 32 32 32 31 31 30 29
34 33 35 35 34 34 35 35 35 34 33 34 34 33 33 33 33 33 32 31 31 31 31 31 31 30 29 29 30 30 31 31 30 31 30 29 29 27
33 34 35 35 34 33 33 34 33 34 33 34 33 32 31 31 31 31 30 30 30 30 30 29 29 29 28 28 28 29 30 29 29 29 28 28 27 26
32 32 32 34 34 33 32 32 33 33 32 32 32 31 30 29 29 29 28 28 28 28 28 28 28 28 27 27 27 27 27 27 27 27 27 26 25 24
31 30 31 33 34 32 31 31 31 32 31 31 30 29 29 29 27 26 26 27 27 27 27 27 26 26 26 25 25 25 25 25 26 26 25 23 22 21
28 30 31 31 32 33 32 30 29 29 29 29 28 27 27 26 25 26 26 26 26 26 25 24 23 24 24 24 24 24 24 24 24 23 23 21 20 19
27 28 29 29 30 31 31 30 29 29 28 27 27 26 25 25 25 25 25 25 25 24 23 22 22 23 23 23 23 22 22 22 22 21 20 19 19 18
26 27 27 27 28 29 29 28 28 28 27 26 25 25 24 24 25 24 24 23 23 22 21 21 21 22 22 22 21 20 20 20 20 19 18 18 18 18
25 25 25 26 27 28 27 27 27 27 26 25 25 24 23 23 23 23 23 22 22 21 20 20 20 21 21 20 19 19 19 18 18 17 17 17 17 16
24 24 24 24 25 26 26 26 26 25 24 23 23 22 22 23 22 22 22 22 21 20 19 19 20 20 19 19 18 17 18 17 17 16 15 15 15 14
23 23 23 22 22 23 24 25 25 24 23 22 22 22 22 22 22 22 22 21 20 19 19 18 18 18 18 17 16 16 16 17 16 15 14 14 13 12
21 22 22 21 21 21 23 24 24 24 23 21 21 21 21 20 21 21 20 19 18 18 18 17 17 17 16 15 15 15 15 16 15 15 14 12 11 10
20 20 20 20 20 21 21 22 22 22 21 20 20 20 20 20 20 19 18 17 16 16 16 15 15 15 15 14 14 14 14 15 15 14 13 12 11 10
Wind_Direction
257 260 261 263 262 262 263 264 266 268 268 271 274 277 279 282 284 287 290 292 294 295 297 297 297 298 298 299 301 302 302 302 302 303 303 303 303 303
256 257 258 260 260 260 262 263 264 267 270 271 273 276 278 282 284 287 290 293 294 296 296 298 297 298 298 300 300 302 303 303 303 304 305 304 303 303
255 256 257 258 259 260 261 262 263 268 270 272 274 276 278 281 284 287 290 292 293 296 297 298 298 299 300 300 301 303 304 304 304 305 306 305 304 304
253 254 256 256 256 258 260 262 264 267 270 272 275 276 277 280 285 288 290 291 293 294 296 297 298 299 300 301 302 303 303 304 305 306 306 306 305 305
252 253 254 254 255 255 257 260 264 268 271 272 274 276 277 279 283 287 290 291 292 294 295 296 299 300 299 300 301 302 303 304 306 307 307 306 306 306
250 251 253 254 254 253 254 259 264 268 271 273 275 277 278 280 282 285 288 289 291 293 294 296 298 299 299 300 301 302 304 306 308 307 307 307 307 307
248 250 251 253 253 252 255 260 264 269 271 273 276 277 279 281 282 284 287 288 291 293 294 295 297 298 299 299 301 303 305 307 309 309 308 308 308 308
248 249 251 254 254 254 256 260 266 270 271 273 275 278 280 283 283 284 287 289 290 291 294 295 296 298 299 301 302 304 305 306 307 308 308 309 310 310
248 250 251 253 255 254 257 260 265 270 272 273 276 279 280 283 285 285 286 288 288 290 292 294 296 298 299 301 303 304 305 306 307 308 308 309 311 312
248 250 250 252 254 255 256 261 265 269 271 273 275 277 279 281 283 284 285 287 288 289 292 295 297 299 300 301 302 303 306 307 307 308 309 311 312 312
249 248 248 251 254 257 259 262 265 268 268 271 274 275 276 279 282 284 285 287 288 290 292 296 298 300 301 302 302 304 306 307 308 309 310 312 313 313
250 250 250 251 254 257 261 262 264 265 266 268 272 274 276 278 280 282 284 286 288 290 293 296 298 299 300 301 301 303 306 308 309 310 311 312 314 315
251 251 252 253 254 256 259 261 262 262 264 268 271 274 276 278 281 283 284 287 290 292 295 297 298 299 301 301 301 303 305 308 309 311 312 313 315 317
251 252 252 253 254 255 257 259 260 261 264 269 271 272 273 276 279 282 284 287 290 293 296 297 297 298 300 301 302 303 304 307 310 312 314 315 317 318
252 253 254 254 255 255 254 257 260 262 265 268 270 270 272 274 276 280 284 287 289 291 293 294 296 298 300 301 303 303 305 309 312 314 316 317 318 320
255 255 255 254 253 255 255 258 261 261 263 266 267 268 270 272 275 280 284 286 288 291 292 293 294 296 299 302 304 305 307 311 315 317 319 320 321 322
255 257 257 256 255 255 256 259 259 258 261 263 264 267 269 273 277 281 283 284 287 288 289 289 292 296 300 304 305 307 310 314 317 319 320 322 323 325
256 257 256 255 255 254 256 258 257 257 260 260 262 266 268 273 277 279 281 283 286 285 286 289 293 296 300 306 307 309 312 316 319 319 320 322 325 326
254 256 256 255 255 254 254 255 255 257 259 259 262 265 269 275 277 278 280 282 283 284 285 288 292 296 300 304 307 309 312 315 319 320 320 323 326 327
253 254 255 254 255 254 254 253 254 255 256 257 259 263 270 274 275 275 277 279 279 280 283 288 293 297 299 302 306 308 311 316 321 322 323 326 328 331
251 251 252 253 253 254 253 252 252 252 253 254 257 262 267 271 272 273 274 275 275 277 281 287 293 297 300 302 306 309 313 316 320 322 323 324 327 331
252 252 251 250 251 253 254 250 248 250 251 252 256 259 263 266 268 270 271 271 273 277 280 284 290 296 300 303 306 310 314 317 317 319 320 322 325 330
251 250 250 251 253 252 251 245 244 247 249 252 254 258 261 264 265 265 267 268 271 272 275 278 283 290 296 300 305 310 313 316 318 319 320 322 322 325
Height
5672 5675 5677 5679 5680 5682 5684 5686 5688 5690 5691 5691 5690 5689 5688 5687 5686 5684 5682 5679 5676 5673 5670 5666 5662 5659 5655 5651 5647 5643 5638 5634 5630 5626 5621 5617 5612 5608
5661 5664 5666 5668 5670 5673 5675 5677 5678 5679 5681 5682 5681 5680 5679 5678 5676 5675 5673 5670 5667 5664 5660 5656 5652 5649 5645 5641 5637 5633 5629 5625 5620 5616 5612 5607 5603 5598
5650 5653 5656 5658 5661 5663 5665 5667 5669 5670 5671 5672 5671 5670 5670 5669 5668 5666 5663 5661 5658 5654 5651 5647 5643 5640 5636 5632 5628 5624 5620 5615 5611 5607 5602 5598 5593 5589
5640 5643 5645 5648 5651 5653 5655 5658 5659 5661 5661 5662 5662 5661 5660 5659 5658 5657 5654 5652 5649 5645 5642 5638 5634 5631 5627 5623 5619 5615 5611 5607 5603 5598 5594 5589 5585 5580
5629 5632 5635 5638 5641 5644 5646 5648 5650 5651 5651 5652 5653 5652 5651 5650 5649 5647 5645 5642 5639 5636 5633 5629 5626 5622 5618 5615 5611 5607 5603 5599 5595 5590 5585 5581 5576 5572
5619 5622 5626 5629 5632 5634 5636 5639 5640 5641 5642 5643 5643 5643 5642 5641 5639 5638 5636 5633 5630 5627 5624 5621 5617 5614 5610 5606 5603 5599 5595 5591 5586 5582 5577 5573 5568 5564
5610 5613 5616 5620 5622 5625 5627 5629 5631 5632 5633 5633 5633 5633 5632 5631 5630 5628 5627 5625 5622 5619 5616 5612 5610 5606 5602 5599 5595 5591 5587 5583 5579 5574 5570 5565 5561 5556
5601 5604 5607 5610 5613 5616 5618 5619 5621 5622 5623 5624 5624 5624 5623 5622 5621 5619 5618 5616 5614 5611 5608 5605 5602 5599 5595 5591 5588 5584 5580 5575 5571 5566 5562 5557 5553 5548
5592 5595 5598 5600 5603 5606 5608 5610 5611 5612 5613 5614 5615 5614 5614 5614 5612 5611 5609 5607 5605 5603 5600 5598 5594 5591 5587 5583 5580 5576 5572 5568 5563 5559 5554 5550 5545 5540
5583 5586 5589 5591 5594 5597 5599 5601 5602 5603 5604 5605 5606 5605 5605 5604 5603 5602 5601 5599 5597 5594 5592 5590 5587 5584 5580 5575 5572 5568 5564 5560 5556 5551 5547 5542 5537 5533
5573 5577 5580 5582 5585 5588 5590 5592 5593 5594 5594 5595 5596 5596 5596 5595 5594 5593 5592 5591 5589 5587 5584 5582 5580 5577 5573 5569 5565 5561 5557 5553 5549 5544 5540 5535 5531 5526
5565 5568 5571 5573 5576 5578 5580 5582 5584 5585 5586 5587 5587 5587 5586 5586 5585 5584 5584 5583 5581 5580 5577 5575 5572 5569 5567 5563 5558 5554 5551 5546 5542 5538 5533 5529 5524 5521
5556 5559 5561 5564 5566 5569 5571 5573 5575 5576 5577 5578 5578 5578 5578 5577 5577 5576 5575 5575 5573 5572 5570 5567 5565 5562 5559 5557 5553 5548 5544 5540 5536 5532 5527 5523 5519 5515
5548 5550 5553 5555 5557 5560 5562 5564 5566 5567 5569 5569 5570 5570 5570 5570 5569 5568 5567 5566 5565 5564 5562 5560 5558 5555 5552 5550 5547 5543 5538 5534 5531 5527 5522 5518 5514 5510
5539 5542 5544 5546 5549 5551 5554 5556 5557 5559 5560 5561 5562 5562 5562 5562 5562 5561 5560 5559 5557 5556 5554 5552 5551 5549 5546 5543 5540 5537 5533 5530 5525 5522 5518 5514 5510 5507
5532 5534 5536 5538 5540 5543 5545 5547 5549 5551 5552 5553 5554 5554 5554 5554 5554 5554 5553 5552 5550 5549 5547 5546 5544 5543 5540 5538 5535 5531 5528 5525 5521 5517 5514 5510 5507 5504
5524 5526 5528 5530 5532 5534 5537 5539 5541 5543 5544 5545 5546 5547 5547 5547 5547 5547 5546 5545 5544 5543 5542 5540 5539 5537 5535 5533 5530 5526 5523 5520 5517 5514 5510 5507 5504 5501
5516 5518 5520 5521 5524 5526 5529 5531 5533 5535 5537 5538 5539 5540 5540 5540 5540 5539 5539 5538 5538 5537 5536 5535 5534 5532 5530 5528 5525 5522 5519 5516 5513 5510 5507 5504 5501 5498
5509 5510 5512 5514 5516 5519 5521 5523 5525 5527 5529 5530 5532 5533 5533 5534 5533 5533 5532 5532 5532 5531 5531 5530 5529 5527 5526 5524 5521 5518 5516 5513 5510 5507 5504 5501 5498 5495
5501 5503 5505 5507 5509 5511 5513 5515 5517 5519 5521 5523 5525 5526 5527 5527 5527 5527 5527 5526 5526 5526 5526 5525 5524 5523 5521 5520 5517 5515 5512 5510 5507 5505 5502 5499 5496 5493
5494 5496 5498 5500 5502 5504 5506 5508 5509 5512 5514 5516 5518 5519 5520 5521 5521 5521 5521 5521 5521 5521 5521 5520 5519 5518 5517 5515 5514 5511 5509 5506 5504 5502 5500 5497 5495 5492
5487 5489 5491 5493 5495 5497 5499 5501 5502 5505 5507 5509 5511 5513 5513 5514 5515 5515 5516 5516 5516 5516 5516 5516 5515 5514 5513 5511 5510 5508 5506 5503 5501 5498 5496 5494 5492 5490
5481 5483 5485 5486 5488 5490 5492 5494 5496 5498 5501 5503 5505 5506 5507 5508 5509 5510 5510 5510 5511 5511 5511 5511 5511 5510 5509 5508 5506 5505 5503 5501 5498 5496 5494 5491 5490 5488